Volver al catálogo

STARLINK-34351

ActivoComunicacionesVLEO
NORAD 64387·PAYLOAD·🇺🇸 United States

Lanzado Jun 13, 2025 desde Cape Canaveral Space Force Station

Loading…

Próximos Pases (próximas 24 horas)

TLE

ActualizadoSource: CelesTrak SupGP

Época: Sep 14, 2026, 22:54 UTC

1 64387C 25127T   26257.95465278 -.00011193  00000+0 -40554-3 0  2577
2 64387  43.0026 190.5662 0001258 264.1844 205.6245 15.27572725    17

Sigue STARLINK-34351 en tiempo real con AllMySat

Download on the App Store